Location: Boissi�res
(45.2500°N, 2.3667°E)
Time: 08:16:41
(UTC+00:00)

SL-4 R/B - Pass Details

Date: 03 March 2021
Orbit: 428 x 663 km, 51.6° (Epoch: 18 April)

Event Time Altitude Azimuth Distance (km) Brightness Sun altitude
Rises 18:09:52 0° 289° (WNW) 2,522 6.9 -5.9°
Reaches altitude 10° 18:12:17 10° 301° (WNW) 1,609 5.4 -6.4°
Maximum altitude 18:15:27 28° 3° (N) 867 3.0 -6.9°
Drops below altitude 10° 18:18:30 10° 64° (ENE) 1,543 3.7 -7.5°
Enters shadow 18:18:48 - 67° (ENE) 1,653 3.9 -7.5°
